Malaga, Spain

4:23 AM CEST on May 29, 2017 (GMT +0200)
Malaga

Weather History for LEMG - September, 2012

Change the Weather History Date:

Saturday, September 1, 2012

  Actual Average Record
Temperature  
Mean Temperature 76 °F -  
Max Temperature 82 °F 79 °F 94 °F (2015)
Min Temperature 71 °F 63 °F 64 °F (2001)
Cooling Degree Days 12    
Growing Degree Days 26 (Base 50)    
Moisture  
Dew Point 67 °F    
Average Humidity 75    
Maximum Humidity 88    
Minimum Humidity 60    
Precipitation  
Precipitation 0.00 in 0.02 in - ()
Sea Level Pressure  
Sea Level Pressure 30.07 in    
Wind  
Wind Speed 4 mph ()    
Max Wind Speed 14 mph    
Max Gust Speed -    
Visibility 6.5 miles    
Events      
Averages and records for this station are not official NWS values.
T = Trace of Precipitation, MM = Missing Value Source: Averaged Metar Reports

Daily Weather History Graph

Daily Weather History Graph

Search for Another Location

Airport or City:

Trip Planner

Search our weather history database for the weather conditions in past years. The results will help you decide how hot, cold, wet, or windy it might be!

Date:

Astronomy

Sep. 01, 2012 Rise Set
Actual Time 7:49 AM CEST 8:45 PM CEST
Civil Twilight 7:22 AM CEST 9:12 PM CEST
Nautical Twilight 6:51 AM CEST 9:43 PM CEST
Astronomical Twilight 6:19 AM CEST 10:15 PM CEST
Moon 8:59 PM CEST (9/1) 8:39 AM CEST (9/1)
Length of Visible Light 13h 49m
Length of Day
12h 56m
Full, 99% of the Moon is Illuminated
Sep 1
Full
Sep 8
Last Quarter
Sep 16
New
Sep 22
First Quarter
Sep 30
Full

Hourly Weather History & Observations

Time (CEST) Temp. Dew Point Humidity Pressure Visibility Wind Dir Wind Speed Gust Speed Precip Events Conditions
12:00 AM 73.4 °F 68.0 °F 83% 30.12 in 6.2 mi Variable 2.3 mph - N/A   Mostly Cloudy
12:30 AM 73.4 °F 68.0 °F 83% 30.12 in 6.2 mi Variable 1.2 mph - N/A   Mostly Cloudy
1:00 AM 73.4 °F 68.0 °F 83% 30.12 in 6.2 mi Variable 1.2 mph - N/A   Mostly Cloudy
1:30 AM 75.2 °F 66.2 °F 73% 30.12 in 6.2 mi Variable 1.2 mph - N/A   Mostly Cloudy
2:00 AM 76 °F 67 °F 68% 30.15 in 9 mi Calm Calm - -   Overcast
2:00 AM 75.2 °F 66.2 °F 73% 30.12 in 6.2 mi Calm Calm - N/A   Mostly Cloudy
2:30 AM 75.2 °F 66.2 °F 73% 30.12 in 6.2 mi Variable 1.2 mph - N/A   Mostly Cloudy
3:00 AM 75.2 °F 66.2 °F 73% 30.12 in 6.2 mi Variable 1.2 mph - N/A   Mostly Cloudy
3:30 AM 75.2 °F 68.0 °F 78% 30.12 in 6.2 mi SSE 3.5 mph - N/A   Mostly Cloudy
4:00 AM 75.2 °F 68.0 °F 78% 30.12 in 6.2 mi Variable 2.3 mph - N/A   Mostly Cloudy
4:30 AM 75.2 °F 66.2 °F 73% 30.12 in 6.2 mi Variable 2.3 mph - N/A   Mostly Cloudy
5:00 AM 73.4 °F 68.0 °F 83% 30.09 in 6.2 mi Variable 2.3 mph - N/A   Mostly Cloudy
5:30 AM 73.4 °F 68.0 °F 83% 30.09 in 6.2 mi Variable 2.3 mph - N/A   Mostly Cloudy
6:00 AM 73.4 °F 68.0 °F 83% 30.09 in 6.2 mi Variable 2.3 mph - N/A   Mostly Cloudy
7:00 AM 73.4 °F 68.0 °F 83% 30.09 in 6.2 mi SE 2.3 mph - N/A   Mostly Cloudy
7:30 AM 73.4 °F 68.0 °F 83% 30.09 in 6.2 mi Variable 2.3 mph - N/A   Mostly Cloudy
8:00 AM 75 °F 69 °F 75% 30.11 in 6 mi 1.2 mph - -   Overcast
8:00 AM 73.4 °F 68.0 °F 83% 30.09 in 6.2 mi Variable 1.2 mph - N/A   Scattered Clouds
8:30 AM 75.2 °F 68.0 °F 78% 30.09 in 6.2 mi Variable 2.3 mph - N/A   Mostly Cloudy
9:00 AM 75.2 °F 68.0 °F 78% 30.09 in 6.2 mi ESE 3.5 mph - N/A   Mostly Cloudy
9:30 AM 75.2 °F 68.0 °F 78% 30.09 in 6.2 mi ESE 5.8 mph - N/A   Mostly Cloudy
10:00 AM 77.0 °F 68.0 °F 74% 30.09 in 6.2 mi Variable 5.8 mph - N/A   Mostly Cloudy
10:30 AM 77.0 °F 68.0 °F 74% 30.09 in 6.2 mi East 6.9 mph - N/A   Scattered Clouds
11:00 AM 77.0 °F 68.0 °F 74% 30.09 in 6.2 mi East 8.1 mph - N/A   Scattered Clouds
12:00 PM 78.8 °F 68.0 °F 69% 30.09 in 6.2 mi ESE 9.2 mph - N/A   Scattered Clouds
12:30 PM 78.8 °F 66.2 °F 65% 30.09 in 6.2 mi SE 10.4 mph - N/A   Partly Cloudy
1:00 PM 78.8 °F 68.0 °F 69% 30.09 in 6.2 mi SE 9.2 mph - N/A   Partly Cloudy
1:30 PM 78.8 °F 66.2 °F 65% 30.09 in 6.2 mi SE 11.5 mph - N/A   Partly Cloudy
2:00 PM 80 °F 68 °F 60% 30.11 in 9 mi SE 10.4 mph - -   Partly Cloudy
2:00 PM 78.8 °F 68.0 °F 69% 30.09 in 6.2 mi SE 10.4 mph - N/A   Partly Cloudy
2:30 PM 78.8 °F 66.2 °F 65% 30.06 in 6.2 mi ESE 9.2 mph - N/A   Partly Cloudy
3:00 PM 77.0 °F 66.2 °F 69% 30.06 in 6.2 mi SE 13.8 mph - N/A   Partly Cloudy
3:30 PM 78.8 °F 66.2 °F 65% 30.06 in 6.2 mi ESE 11.5 mph - N/A   Partly Cloudy
4:00 PM 78.8 °F 66.2 °F 65% 30.04 in 6.2 mi ESE 11.5 mph - N/A   Partly Cloudy
4:30 PM 78.8 °F 66.2 °F 65% 30.04 in 6.2 mi ESE 11.5 mph - N/A   Partly Cloudy
5:00 PM 78.8 °F 68.0 °F 69% 30.04 in 6.2 mi ESE 9.2 mph - N/A   Partly Cloudy
5:30 PM 77.0 °F 66.2 °F 69% 30.01 in 6.2 mi ESE 9.2 mph - N/A   Partly Cloudy
6:00 PM 77.0 °F 66.2 °F 69% 30.01 in 6.2 mi ESE 9.2 mph - N/A   Partly Cloudy
6:30 PM 77.0 °F 66.2 °F 69% 30.01 in 6.2 mi SE 8.1 mph - N/A   Partly Cloudy
7:00 PM 75.2 °F 66.2 °F 73% 29.98 in 6.2 mi ESE 6.9 mph - N/A   Partly Cloudy
7:30 PM 75.2 °F 66.2 °F 73% 29.98 in - SE 8.1 mph - N/A   Clear
8:00 PM 77 °F 67 °F 64% 30.01 in 12 mi SE 6.9 mph - -   Clear
8:00 PM 75.2 °F 66.2 °F 73% 29.98 in - SE 6.9 mph - N/A   Clear
8:30 PM 75.2 °F 66.2 °F 73% 29.98 in - SE 6.9 mph - N/A   Clear
9:00 PM 73.4 °F 68.0 °F 83% 29.98 in - SSE 4.6 mph - N/A   Clear
9:30 PM 73.4 °F 68.0 °F 83% 30.01 in - SE 5.8 mph - N/A   Clear
10:00 PM 73.4 °F 68.0 °F 83% 30.01 in - SE 3.5 mph - N/A   Clear
10:30 PM 71.6 °F 68.0 °F 88% 30.01 in - Variable 2.3 mph - N/A   Clear
11:00 PM 71.6 °F 68.0 °F 88% 30.01 in - Variable 2.3 mph - N/A   Clear
11:30 PM 71.6 °F 68.0 °F 88% 30.04 in - SSE 1.2 mph - N/A   Clear